Форум фильмов, сериалов и мультфильмов

Объявление

Информация о пользователе

Привет, Гость! Войдите или зарегистрируйтесь.



Софт

Тем 5491 страница 5520 из 15204

Тема Ответов Просмотров Последнее сообщение
0 0 12.10.2017 16:32:00  Trust_Uploader
0 3 12.10.2017 16:31:26  mitsumi
0 2 12.10.2017 16:29:51  Trust_Uploader
0 4 12.10.2017 16:27:43  Trust_Uploader
0 0 12.10.2017 16:26:44  mitsumi
0 0 12.10.2017 16:25:36  Trust_Uploader
0 0 12.10.2017 16:22:00  sumoo
0 2 12.10.2017 16:21:47  mitsumi
0 0 12.10.2017 16:21:13  Trust_Uploader
0 0 12.10.2017 16:19:07  Trust_Uploader
0 0 12.10.2017 16:17:01  Trust_Uploader
0 0 12.10.2017 16:16:53  mitsumi
0 0 12.10.2017 16:14:55  Trust_Uploader
0 0 12.10.2017 16:12:49  Trust_Uploader
0 0 12.10.2017 16:10:44  Trust_Uploader
0 0 12.10.2017 16:08:39  Trust_Uploader
0 0 12.10.2017 16:06:33  Trust_Uploader
0 0 12.10.2017 16:06:31  mitsumi
0 3 12.10.2017 16:04:26  Trust_Uploader
0 0 12.10.2017 16:02:20  Trust_Uploader
0 0 12.10.2017 16:01:24  mitsumi
0 0 12.10.2017 16:00:10  Trust_Uploader
0 0 12.10.2017 15:58:02  Trust_Uploader
0 0 12.10.2017 15:56:21  mitsumi
0 0 12.10.2017 15:55:56  Trust_Uploader
5516 Sonokinetic Accordion KONTAKT  Trust_Uploader
0 1 12.10.2017 15:53:50  Trust_Uploader
0 0 12.10.2017 15:51:43  Trust_Uploader
0 11 12.10.2017 15:51:26  mitsumi
0 0 12.10.2017 15:49:37  Trust_Uploader
5520 System Monitor 2.1 (Mac OSX)  Trust_Uploader
0 1 12.10.2017 15:47:30  Trust_Uploader